Location: Arapaho Elementary School
(32.9607°N, 96.7625°W)
Time: 14:12:53
(UTC+00:00)

CZ-2C R/B - Visible Passes

Search period start: 03 July 2022 00:00
Search period end: 13 July 2022 00:00
Orbit: 785 x 869 km, 98.2° (Epoch: 03 July)

Date Brightness Start Highest point End Pass type
(mag) Time Alt. Az. Time Alt. Az. Time Alt. Az.
03 Jul 5.1 10:03:43 10° ESE 10:08:13 26° ENE 10:12:45 10° NNE visible
04 Jul 5.5 09:46:11 10° ESE 09:49:45 18° ENE 09:53:20 10° NNE visible
05 Jul 5.9 09:29:32 10° E 09:31:21 12° ENE 09:33:09 10° NE visible
06 Jul 3.2 10:46:41 10° SSE 10:52:11 69° ENE 10:57:46 10° N visible
07 Jul 4.0 10:28:20 10° SE 10:33:36 46° ENE 10:38:55 10° N visible
08 Jul 4.8 10:10:15 10° SE 10:15:03 31° ENE 10:19:54 10° N visible
09 Jul 5.4 09:52:31 10° ESE 09:56:34 21° ENE 10:00:39 10° NNE visible
10 Jul 5.7 09:35:21 10° E 09:38:08 14° ENE 09:40:56 10° NE visible
11 Jul 2.9 10:53:31 10° SSE 10:59:06 82° ENE 11:04:44 10° N visible
12 Jul 3.6 10:35:04 10° SSE 10:40:29 54° ENE 10:45:57 10° N visible
